Weather History for Mount Sterling, KY

Change the Weather History Date:

Wednesday, September 19, 2012

  Actual Average Record
Temperature  
Mean Temperature 52 °F -  
Max Temperature 64 °F 76 °F 78 °F (2013)
Min Temperature 39 °F 56 °F 50 °F (2014)
Degree Days  
Heating Degree Days 14    
Growing Degree Days 2 (Base 50)    
Moisture  
Dew Point 40 °F    
Average Humidity 67    
Maximum Humidity 100    
Minimum Humidity 32    
Precipitation  
Precipitation 0.00 in - - ()
Sea Level Pressure  
Sea Level Pressure 30.14 in    
Wind  
Wind Speed 2 mph ()    
Max Wind Speed 9 mph    
Max Gust Speed -    
Visibility 10.0 miles    
Events      
Averages and records for this station are not official NWS values.
T = Trace of Precipitation, MM = Missing Value Source: Averaged Metar Reports

Daily Weather History Graph

Daily Weather History Graph

Search for Another Location

Airport:

Trip Planner

Search our weather history database for the weather conditions in past years. The results will help you decide how hot, cold, wet, or windy it might be!

Date:

Astronomy

Sep. 19, 2012 Rise Set
Actual Time 7:21 AM EDT 7:36 PM EDT
Civil Twilight 6:55 AM EDT 8:03 PM EDT
Nautical Twilight 6:24 AM EDT 8:33 PM EDT
Astronomical Twilight 5:52 AM EDT 9:05 PM EDT
Moon 11:25 AM EDT (9/19) 9:50 PM EDT (9/19)
Length of Visible Light 13h 07m
Length of Day
12h 15m
Waxing Crescent, 17% of the Moon is Illuminated
Sep 19
Waxing Crescent
Sep 22
First Quarter
Sep 29
Full
Oct 8
Last Quarter
Oct 15
New

Hourly Weather History & Observations

Time (EDT) Temp. Windchill Dew Point Humidity Pressure Visibility Wind Dir Wind Speed Gust Speed Precip Events Conditions
12:15 AM 51.8 °F - 42.8 °F 71% 30.05 in 10.0 mi North 3.5 mph - N/A   Clear
12:35 AM 51.8 °F - 44.6 °F 76% 30.06 in 10.0 mi North 5.8 mph - N/A   Clear
12:55 AM 51.8 °F - 44.6 °F 76% 30.06 in 10.0 mi North 5.8 mph - N/A   Clear
1:15 AM 51.8 °F - 44.6 °F 76% 30.06 in 10.0 mi North 4.6 mph - N/A   Clear
1:35 AM 51.8 °F - 44.6 °F 76% 30.07 in 10.0 mi NNE 4.6 mph - N/A   Clear
1:55 AM 50.0 °F - 44.6 °F 82% 30.08 in 10.0 mi NNE 4.6 mph - N/A   Clear
2:15 AM 50.0 °F - 44.6 °F 82% 30.08 in 10.0 mi Calm Calm - N/A   Clear
2:35 AM 50.0 °F - 44.6 °F 82% 30.09 in 10.0 mi Calm Calm - N/A   Clear
2:55 AM 46.4 °F - 44.6 °F 93% 30.09 in 10.0 mi Calm Calm - N/A   Clear
3:15 AM 44.6 °F - 44.6 °F 100% 30.09 in 10.0 mi Calm Calm - N/A   Clear
3:35 AM 44.6 °F - 44.6 °F 100% 30.08 in 10.0 mi Calm Calm - N/A   Clear
3:55 AM 44.6 °F - 44.6 °F 100% 30.09 in 10.0 mi Calm Calm - N/A   Clear
4:15 AM 42.8 °F 41.1 °F 42.8 °F 100% 30.09 in 10.0 mi NNE 3.5 mph - N/A   Clear
4:35 AM 44.6 °F - 42.8 °F 93% 30.10 in 10.0 mi Calm Calm - N/A   Clear
4:55 AM 44.6 °F - 42.8 °F 93% 30.10 in 10.0 mi Calm Calm - N/A   Clear
5:15 AM 42.8 °F - 42.8 °F 100% 30.11 in 10.0 mi Calm Calm - N/A   Clear
5:55 AM 42.8 °F - 42.8 °F 100% 30.12 in 10.0 mi Calm Calm - N/A   Clear
6:15 AM 41.0 °F - 41.0 °F 100% 30.13 in 10.0 mi Calm Calm - N/A   Clear
6:35 AM 42.8 °F - 41.0 °F 93% 30.14 in 10.0 mi Calm Calm - N/A   Clear
6:55 AM 41.0 °F - 41.0 °F 100% 30.15 in 10.0 mi Calm Calm - N/A   Clear
7:15 AM 41.0 °F - 41.0 °F 100% 30.16 in 10.0 mi Calm Calm - N/A   Clear
7:35 AM 39.2 °F - 39.2 °F 100% 30.17 in 10.0 mi Calm Calm - N/A   Clear
7:55 AM 41.0 °F - 41.0 °F 100% 30.17 in 10.0 mi Calm Calm - N/A   Clear
8:15 AM 42.8 °F - 41.0 °F 93% 30.18 in 10.0 mi Calm Calm - N/A   Clear
8:35 AM 44.6 °F - 42.8 °F 93% 30.18 in 10.0 mi Calm Calm - N/A   Clear
8:55 AM 48.2 °F - 44.6 °F 87% 30.18 in 10.0 mi Calm Calm - N/A   Clear
9:15 AM 50.0 °F - 44.6 °F 82% 30.18 in 10.0 mi Calm Calm - N/A   Clear
9:35 AM 53.6 °F - 42.8 °F 67% 30.19 in 10.0 mi East 4.6 mph - N/A   Clear
9:55 AM 53.6 °F - 37.4 °F 54% 30.19 in 10.0 mi East 6.9 mph - N/A   Clear
10:15 AM 55.4 °F - 37.4 °F 51% 30.20 in 10.0 mi ESE 9.2 mph - N/A   Clear
10:55 AM 55.4 °F - 35.6 °F 47% 30.21 in 10.0 mi ESE 9.2 mph - N/A   Clear
11:15 AM 57.2 °F - 35.6 °F 44% 30.21 in 10.0 mi SE 6.9 mph - N/A   Clear
11:35 AM 59.0 °F - 35.6 °F 42% 30.22 in 10.0 mi East 6.9 mph - N/A   Clear
11:55 AM 59.0 °F - 33.8 °F 39% 30.21 in 10.0 mi East 9.2 mph - N/A   Clear
12:15 PM 60.8 °F - 35.6 °F 39% 30.21 in 10.0 mi East 9.2 mph - N/A   Clear
12:35 PM 60.8 °F - 32.0 °F 34% 30.21 in 10.0 mi East 6.9 mph - N/A   Clear
12:55 PM 60.8 °F - 32.0 °F 34% 30.21 in 10.0 mi Calm Calm - N/A   Clear
1:15 PM 60.8 °F - 32.0 °F 34% 30.21 in 10.0 mi ESE 5.8 mph - N/A   Clear
1:35 PM 60.8 °F - 33.8 °F 36% 30.20 in 10.0 mi SE 4.6 mph - N/A   Clear
1:55 PM 62.6 °F - 33.8 °F 34% 30.20 in 10.0 mi East 3.5 mph - N/A   Clear
2:15 PM 64.4 °F - 35.6 °F 34% 30.19 in 10.0 mi NNE 5.8 mph - N/A   Clear
2:35 PM 62.6 °F - 35.6 °F 37% 30.18 in 10.0 mi Calm Calm - N/A   Clear
2:55 PM 62.6 °F - 33.8 °F 34% 30.18 in 10.0 mi Calm Calm - N/A   Clear
3:15 PM 64.4 °F - 35.6 °F 34% 30.17 in 10.0 mi Calm Calm - N/A   Clear
3:35 PM 64.4 °F - 33.8 °F 32% 30.16 in 10.0 mi East 3.5 mph - N/A   Clear
3:55 PM 64.4 °F - 33.8 °F 32% 30.16 in 10.0 mi ENE 3.5 mph - N/A   Clear
4:15 PM 64.4 °F - 33.8 °F 32% 30.16 in 10.0 mi Calm Calm - N/A   Clear
4:35 PM 64.4 °F - 33.8 °F 32% 30.15 in 10.0 mi Calm Calm - N/A   Clear
4:55 PM 64.4 °F - 35.6 °F 34% 30.15 in 10.0 mi East 5.8 mph - N/A   Clear
5:15 PM 64.4 °F - 35.6 °F 34% 30.15 in 10.0 mi Calm Calm - N/A   Clear
5:35 PM 64.4 °F - 35.6 °F 34% 30.15 in 10.0 mi Calm Calm - N/A   Clear
5:55 PM 64.4 °F - 35.6 °F 34% 30.15 in 10.0 mi Calm Calm - N/A   Clear
6:15 PM 62.6 °F - 35.6 °F 37% 30.15 in 10.0 mi Calm Calm - N/A   Clear
6:35 PM 64.4 °F - 37.4 °F 37% 30.14 in 10.0 mi SSE 3.5 mph - N/A   Clear
6:55 PM 62.6 °F - 37.4 °F 39% 30.14 in 10.0 mi SE 3.5 mph - N/A   Clear
7:15 PM 62.6 °F - 37.4 °F 39% 30.14 in 10.0 mi Calm Calm - N/A   Clear
7:35 PM 59.0 °F - 42.8 °F 55% 30.13 in 10.0 mi Calm Calm - N/A   Clear
7:55 PM 53.6 °F - 44.6 °F 72% 30.13 in 10.0 mi Calm Calm - N/A   Clear
8:15 PM 53.6 °F - 44.6 °F 72% 30.13 in 10.0 mi SSE 4.6 mph - N/A   Clear
8:35 PM 50.0 °F - 46.4 °F 87% 30.13 in 10.0 mi Calm Calm - N/A   Clear
8:55 PM 50.0 °F - 46.4 °F 87% 30.14 in 10.0 mi Calm Calm - N/A   Clear
9:15 PM 50.0 °F - 46.4 °F 87% 30.14 in 10.0 mi Calm Calm - N/A   Clear
9:35 PM 46.4 °F - 46.4 °F 100% 30.14 in 10.0 mi Calm Calm - N/A   Clear
9:55 PM 46.4 °F - 44.6 °F 93% 30.14 in 10.0 mi Calm Calm - N/A   Clear
10:15 PM 46.4 °F - 44.6 °F 93% 30.14 in 10.0 mi Calm Calm - N/A   Clear
10:35 PM 46.4 °F - 44.6 °F 93% 30.14 in 10.0 mi Calm Calm - N/A   Clear
10:55 PM 50.0 °F - 42.8 °F 76% 30.13 in 10.0 mi SSE 5.8 mph - N/A   Clear
11:15 PM 51.8 °F - 42.8 °F 71% 30.13 in 10.0 mi SSE 5.8 mph - N/A   Clear
11:35 PM 51.8 °F - 41.0 °F 67% 30.12 in 10.0 mi SSE 5.8 mph - N/A   Clear
11:55 PM 44.6 °F 41.4 °F 42.8 °F 93% 30.12 in 10.0 mi SSE 5.8 mph - N/A   Clear